Theta_e
335 337 338 340 340 339 337 337 336 336 336 335 335 334 334 333 334 334 334 333 330 329 327 324 322 322 317
330 330 332 335 335 335 335 333 332 333 333 333 331 334 334 334 334 333 331 329 328 326 323 321 318 317 313
327 326 328 330 331 331 329 327 325 326 326 326 327 330 333 335 333 330 328 325 323 321 319 317 314 310 311
331 326 327 328 327 325 323 323 323 322 323 323 322 323 326 331 331 328 325 321 318 316 313 313 309 308 309
327 325 325 324 323 322 320 321 321 322 320 320 319 320 320 321 325 322 317 315 313 312 310 309 306 305 305
326 325 324 323 320 319 320 321 320 320 319 318 318 317 317 318 315 314 314 312 309 307 307 305 302 302 302
325 323 323 322 321 320 320 322 321 319 318 319 318 315 316 316 314 313 312 312 307 306 304 302 299 299 299
325 324 323 320 321 320 320 321 321 320 320 320 317 315 314 314 313 312 311 309 309 307 303 300 296 295 295
324 323 321 321 320 320 320 321 321 322 322 323 317 314 313 313 312 312 310 310 306 304 300 295 294 293 293
323 322 321 320 319 320 320 320 321 322 323 317 315 314 314 313 312 311 309 306 303 299 294 293 292 292 291
322 322 320 319 319 319 319 320 321 322 320 317 314 313 314 313 311 311 307 303 299 296 293 291 290 290 290
323 322 319 317 317 318 319 320 321 320 318 316 312 313 314 312 310 308 306 302 298 295 295 291 289 289 288
321 320 319 318 318 316 317 319 319 318 317 314 312 312 313 312 310 308 304 299 296 294 292 290 290 288 287
323 323 320 319 315 317 316 317 319 316 315 313 311 310 313 310 308 307 304 299 296 296 293 291 287 288 288
323 321 313 312 310 311 313 314 313 314 313 312 310 310 310 312 309 308 306 300 295 296 295 294 288 289 287
323 320 319 318 316 315 318 315 311 312 310 310 309 308 308 310 309 309 307 302 298 296 295 297 295 292 289
Wind_Speed
10 9 11 11 11 13 12 11 10 9 10 10 9 8 8 7 12 12 17 18 17 18 18 18 17 16 9
6 9 10 11 12 12 10 10 9 9 9 8 7 5 6 9 16 17 17 17 18 18 18 18 15 15 8
6 6 9 10 10 10 8 8 7 4 5 5 3 5 5 12 18 17 18 18 18 18 18 16 14 6 6
6 5 5 6 4 5 5 6 4 5 4 3 4 8 8 15 18 17 16 16 11 5 6 11 6 6 6
6 4 2 3 3 3 6 5 4 3 3 2 2 3 4 9 7 8 6 5 6 6 6 6 7 7 5
5 5 4 4 3 3 4 5 4 3 3 3 2 3 4 3 6 5 4 7 8 8 9 8 8 6 5
8 5 5 4 4 4 4 5 4 4 4 4 3 3 4 5 6 6 5 6 7 9 8 9 7 7 7
8 8 6 4 5 4 4 4 5 4 4 4 4 4 4 4 4 5 5 5 6 8 8 8 6 5 6
9 8 6 6 5 5 4 6 6 5 5 6 5 4 4 4 7 6 6 8 7 7 8 5 5 5 5
9 8 6 5 5 5 4 4 6 6 6 5 6 5 6 6 6 5 4 7 7 6 4 4 4 5 5
9 7 6 7 5 5 4 4 6 6 7 6 5 5 7 6 5 6 3 6 7 6 5 4 4 4 4
8 6 4 4 4 4 5 5 7 5 7 6 5 7 7 6 5 4 7 4 6 6 6 5 4 4 3
8 9 7 9 6 4 5 7 7 6 7 7 6 8 7 8 8 8 6 10 4 5 5 2 3 3 3
10 9 4 6 3 3 4 6 7 7 8 8 9 8 9 6 8 10 10 6 3 7 4 3 2 1 1
13 7 3 4 3 2 3 4 5 7 8 8 8 8 9 8 9 10 9 7 5 6 4 4 3 4 2
15 12 15 10 9 6 8 5 6 7 7 7 8 8 9 7 9 10 9 5 6 7 1 2 1 4 4
Wind_Direction
146 147 140 130 123 114 127 136 119 117 112 110 110 115 112 111 82 89 90 84 84 75 67 57 49 47 42
139 132 128 126 121 126 132 117 117 119 110 111 100 97 113 104 98 94 94 89 81 74 68 62 50 43 34
141 144 129 129 129 128 123 126 115 113 110 103 122 104 103 102 103 101 97 94 83 73 65 58 53 32 31
148 144 134 129 130 131 134 134 128 124 121 124 79 55 47 105 108 104 102 92 80 70 66 53 43 30 30
144 141 134 132 135 142 150 149 142 124 116 103 78 74 77 89 104 96 86 81 84 79 68 62 48 40 26
146 153 153 151 148 157 167 161 146 137 138 125 101 104 110 100 100 95 97 99 84 85 76 73 56 45 32
162 154 157 166 163 173 170 180 156 161 163 141 138 112 109 114 113 108 104 99 99 88 81 72 55 49 44
170 168 173 167 175 174 176 184 180 168 162 148 143 122 115 111 109 115 113 99 95 94 86 79 67 55 54
174 173 174 182 172 181 188 186 178 172 166 154 136 131 128 116 116 113 114 105 93 89 89 76 74 64 55
181 179 178 183 174 187 186 176 183 174 159 144 141 142 136 131 132 128 123 105 100 99 88 66 70 69 66
174 179 183 183 183 189 177 177 187 175 163 150 144 144 143 142 139 142 109 112 113 107 105 87 70 64 54
174 172 175 174 190 179 189 184 181 170 159 147 143 146 147 145 140 121 128 94 127 126 108 85 70 77 66
181 182 193 201 197 195 191 182 180 169 158 156 153 148 156 163 160 143 117 121 86 125 108 63 47 65 76
186 190 184 179 181 187 179 183 181 170 163 164 160 165 167 154 154 158 152 139 116 186 129 122 156 312 298
188 163 91 87 70 133 184 189 187 172 169 169 171 164 167 168 174 172 165 156 143 201 213 140 117 217 143
180 178 191 195 191 201 191 183 175 177 176 176 173 169 171 175 178 180 174 165 138 174 225 203 86 134 166